Change the Weather History Date:

Wednesday, January 15, 2014

  Actual Average Record
Temperature  
Mean Temperature 34 °F -  
Max Temperature 37 °F 19 °F 49 °F (1932)
Min Temperature 30 °F 2 °F -34 °F (1957)
Degree Days  
Heating Degree Days 32    
Moisture  
Dew Point 28 °F    
Average Humidity 79    
Maximum Humidity 93    
Minimum Humidity 65    
Precipitation  
Precipitation 0.08 in - - ()
Sea Level Pressure  
Sea Level Pressure 29.84 in    
Wind  
Wind Speed 5 mph (SSE)    
Max Wind Speed 14 mph    
Max Gust Speed 17 mph    
Visibility 10 miles    
Events      
Averages and records for this station are not official NWS values.
T = Trace of Precipitation, MM = Missing Value Source: NWS Daily Summary

Daily Weather History Graph

Daily Weather History Graph

Search for Another Location

Airport or City:

Trip Planner

Search our weather history database for the weather conditions in past years. The results will help you decide how hot, cold, wet, or windy it might be!

Date:

Astronomy

Jan. 15, 2014 Rise Set
Actual Time 7:12 AM EST 4:11 PM EST
Civil Twilight 6:38 AM EST 4:45 PM EST
Nautical Twilight 6:00 AM EST 5:22 PM EST
Astronomical Twilight 5:24 AM EST 5:59 PM EST
Moon 4:09 PM EST (1/15) 6:23 AM EST (1/15)
Length of Visible Light 10h 06m
Length of Day
8h 58m
Full, 100% of the Moon is Illuminated
Jan 15
Full
Jan 15
Full
Jan 24
Last Quarter
Jan 30
New
Feb 6
First Quarter

Hourly Weather History & Observations

Time (EST) Temp. Windchill Dew Point Humidity Pressure Visibility Wind Dir Wind Speed Gust Speed Precip Events Conditions
12:15 AM 35.6 °F 32.8 °F 33.8 °F 93% 29.57 in 0.8 mi West 3.5 mph - 0.01 in   Overcast
12:35 AM 35.6 °F - 32.0 °F 87% 29.57 in 0.5 mi Calm Calm - 0.01 in   Overcast
12:55 AM 35.6 °F - 33.8 °F 93% 29.57 in 1.5 mi Calm Calm - 0.02 in   Overcast
1:15 AM 37.4 °F 31.4 °F 35.6 °F 93% 29.59 in 10.0 mi WNW 8.1 mph - 0.02 in   Overcast
1:35 AM 37.4 °F 32.1 °F 35.6 °F 93% 29.61 in 10.0 mi NW 6.9 mph - 0.02 in   Overcast
1:55 AM 37.4 °F 30.3 °F 35.6 °F 93% 29.63 in 10.0 mi NW 10.4 mph - 0.04 in   Overcast
2:15 AM 37.4 °F 30.8 °F 33.8 °F 87% 29.64 in 10.0 mi NW 9.2 mph 17.3 mph 0.01 in   Overcast
2:35 AM 37.4 °F 30.3 °F 33.8 °F 87% 29.65 in 10.0 mi NW 10.4 mph - 0.02 in   Overcast
2:55 AM 35.6 °F 31.7 °F 33.8 °F 93% 29.64 in 10.0 mi NNE 4.6 mph - 0.02 in   Mostly Cloudy
3:15 AM 35.6 °F 29.2 °F 32.0 °F 87% 29.67 in 10.0 mi West 8.1 mph - N/A   Overcast
3:35 AM 35.6 °F 28.6 °F 32.0 °F 87% 29.69 in 10.0 mi WNW 9.2 mph - N/A   Overcast
3:55 AM 35.6 °F 28.0 °F 30.2 °F 81% 29.71 in 10.0 mi WNW 10.4 mph - N/A   Overcast
4:15 AM 35.6 °F 29.2 °F 30.2 °F 81% 29.72 in 10.0 mi NW 8.1 mph - N/A   Overcast
4:35 AM 35.6 °F 26.6 °F 30.2 °F 81% 29.72 in 10.0 mi NNW 13.8 mph - N/A   Scattered Clouds
4:55 AM 33.8 °F 27.7 °F 28.4 °F 81% 29.74 in 10.0 mi NW 6.9 mph - N/A   Scattered Clouds
5:15 AM 33.8 °F 29.6 °F 28.4 °F 81% 29.76 in 10.0 mi NW 4.6 mph - N/A   Mostly Cloudy
5:35 AM 33.8 °F 27.0 °F 28.4 °F 81% 29.77 in 10.0 mi NW 8.1 mph - N/A   Overcast
5:55 AM 33.8 °F 26.4 °F 26.6 °F 75% 29.77 in 10.0 mi NNW 9.2 mph - N/A   Mostly Cloudy
6:15 AM 32.0 °F 26.4 °F 26.6 °F 80% 29.78 in 10.0 mi NNW 5.8 mph - N/A   Partly Cloudy
6:35 AM 30.2 °F - 26.6 °F 86% 29.81 in 10.0 mi Calm Calm - N/A   Clear
6:55 AM 30.2 °F - 26.6 °F 86% 29.82 in 10.0 mi Calm Calm - N/A   Clear
7:15 AM 30.2 °F - 26.6 °F 86% 29.84 in 10.0 mi Calm Calm - N/A   Scattered Clouds
7:35 AM 30.2 °F - 24.8 °F 80% 29.86 in 10.0 mi Calm Calm - N/A   Mostly Cloudy
7:55 AM 33.8 °F - 26.6 °F 75% 29.88 in 10.0 mi Calm Calm - N/A   Overcast
8:15 AM 33.8 °F 28.6 °F 24.8 °F 70% 29.88 in 10.0 mi North 5.8 mph - N/A   Overcast
8:35 AM 33.8 °F 30.8 °F 23.0 °F 65% 29.89 in 10.0 mi NNE 3.5 mph - N/A   Partly Cloudy
8:55 AM 33.8 °F 28.6 °F 23.0 °F 65% 29.89 in 10.0 mi NNE 5.8 mph - N/A   Clear
9:15 AM 35.6 °F - 24.8 °F 65% 29.91 in 10.0 mi Calm Calm - N/A   Scattered Clouds
9:35 AM 33.8 °F - 23.0 °F 65% 29.93 in 10.0 mi Calm Calm - N/A   Mostly Cloudy
9:55 AM 33.8 °F - 23.0 °F 65% 29.94 in 10.0 mi Calm Calm - N/A   Overcast
10:15 AM 33.8 °F - 23.0 °F 65% 29.95 in 10.0 mi Calm Calm - N/A   Overcast
10:35 AM 33.8 °F - 24.8 °F 70% 29.95 in 10.0 mi Calm Calm - N/A   Overcast
10:55 AM 33.8 °F 30.8 °F 24.8 °F 70% 29.95 in 10.0 mi SSE 3.5 mph - N/A   Overcast
11:15 AM 33.8 °F - 24.8 °F 70% 29.94 in 10.0 mi Calm Calm - N/A   Overcast
11:35 AM 33.8 °F 30.8 °F 24.8 °F 70% 29.94 in 10.0 mi SE 3.5 mph - N/A   Overcast
11:55 AM 35.6 °F 29.9 °F 24.8 °F 65% 29.93 in 10.0 mi SE 6.9 mph - N/A   Overcast
12:15 PM 35.6 °F 30.7 °F 24.8 °F 65% 29.93 in 10.0 mi ESE 5.8 mph - N/A   Overcast
12:35 PM 35.6 °F 29.9 °F 26.6 °F 70% 29.92 in 10.0 mi SE 6.9 mph - N/A   Overcast
12:55 PM 35.6 °F 29.9 °F 28.4 °F 75% 29.91 in 10.0 mi SE 6.9 mph - N/A   Overcast
1:15 PM 35.6 °F 29.2 °F 28.4 °F 75% 29.91 in 10.0 mi SE 8.1 mph - N/A   Overcast
1:35 PM 37.4 °F 32.1 °F 28.4 °F 70% 29.91 in 10.0 mi SSE 6.9 mph - N/A   Overcast
1:55 PM 37.4 °F 32.8 °F 28.4 °F 70% 29.92 in 10.0 mi SE 5.8 mph - N/A   Overcast
2:15 PM 37.4 °F 33.8 °F 28.4 °F 70% 29.92 in 10.0 mi SE 4.6 mph - N/A   Overcast
2:35 PM 37.4 °F 32.1 °F 28.4 °F 70% 29.92 in 10.0 mi SE 6.9 mph - N/A   Overcast
2:55 PM 37.4 °F 32.8 °F 28.4 °F 70% 29.92 in 10.0 mi SE 5.8 mph - N/A   Mostly Cloudy
3:15 PM 37.4 °F 32.1 °F 30.2 °F 75% 29.91 in 10.0 mi SSE 6.9 mph - N/A   Mostly Cloudy
3:35 PM 37.4 °F 30.8 °F 30.2 °F 75% 29.92 in 10.0 mi SSE 9.2 mph - N/A   Partly Cloudy
3:55 PM 37.4 °F 30.8 °F 30.2 °F 75% 29.91 in 10.0 mi SSE 9.2 mph - N/A   Clear
4:15 PM 35.6 °F 28.0 °F 30.2 °F 81% 29.91 in 10.0 mi SSE 10.4 mph - N/A   Clear
4:35 PM 35.6 °F 29.2 °F 30.2 °F 81% 29.91 in 10.0 mi SSE 8.1 mph - N/A   Clear
4:55 PM 35.6 °F 29.9 °F 30.2 °F 81% 29.90 in 10.0 mi SE 6.9 mph - N/A   Clear
5:15 PM 35.6 °F 29.9 °F 30.2 °F 81% 29.90 in 10.0 mi SSE 6.9 mph - N/A   Clear
5:35 PM 35.6 °F 31.7 °F 28.4 °F 75% 29.91 in 10.0 mi SSE 4.6 mph - N/A   Clear
5:55 PM 33.8 °F 30.8 °F 28.4 °F 81% 29.91 in 10.0 mi SSE 3.5 mph - N/A   Clear
6:15 PM 33.8 °F - 28.4 °F 81% 29.91 in 10.0 mi Calm Calm - N/A   Clear
6:35 PM 33.8 °F - 28.4 °F 81% 29.92 in 10.0 mi Calm Calm - N/A   Clear
6:55 PM 32.0 °F - 28.4 °F 87% 29.92 in 10.0 mi Calm Calm - N/A   Clear
7:15 PM 32.0 °F 28.7 °F 28.4 °F 87% 29.92 in 10.0 mi SE 3.5 mph - N/A   Clear
7:35 PM 30.2 °F 24.3 °F 26.6 °F 86% 29.91 in 10.0 mi SSE 5.8 mph - N/A   Clear
7:55 PM 33.8 °F 26.4 °F 28.4 °F 81% 29.91 in 10.0 mi SSE 9.2 mph - N/A   Clear
8:15 PM 33.8 °F 27.0 °F 28.4 °F 81% 29.91 in 10.0 mi SSE 8.1 mph - N/A   Clear
8:35 PM 33.8 °F 27.0 °F 28.4 °F 81% 29.91 in 10.0 mi SSE 8.1 mph - N/A   Clear
8:55 PM 33.8 °F 27.7 °F 28.4 °F 81% 29.90 in 10.0 mi SSE 6.9 mph - N/A   Clear
9:15 PM 33.8 °F 28.6 °F 28.4 °F 81% 29.90 in 10.0 mi SSE 5.8 mph - N/A   Clear
9:35 PM 33.8 °F 27.7 °F 28.4 °F 81% 29.90 in 10.0 mi SSE 6.9 mph - N/A   Clear
9:55 PM 33.8 °F 27.7 °F 28.4 °F 81% 29.90 in 10.0 mi SSE 6.9 mph - N/A   Clear
10:15 PM 32.0 °F 25.6 °F 28.4 °F 87% 29.90 in 10.0 mi South 6.9 mph - N/A   Clear
10:35 PM 32.0 °F 24.8 °F 28.4 °F 87% 29.90 in 10.0 mi SSE 8.1 mph - N/A   Mostly Cloudy
10:55 PM 33.8 °F 27.0 °F 28.4 °F 81% 29.88 in 10.0 mi SSE 8.1 mph - N/A   Scattered Clouds
11:15 PM 32.0 °F 27.5 °F 28.4 °F 87% 29.88 in 10.0 mi SSE 4.6 mph - N/A   Clear
11:35 PM 32.0 °F 27.5 °F 28.4 °F 87% 29.88 in 10.0 mi SSE 4.6 mph - N/A   Clear
11:55 PM 32.0 °F 27.5 °F 28.4 °F 87% 29.88 in 10.0 mi SSE 4.6 mph - N/A   Clear